Clinton, MO

10:38 AM CST on January 19, 2017 (GMT -0600)
Clinton Memorial

Weather History for KGLY - April, 2013

Change the Weather History Date:

Friday, April 19, 2013

  Actual Average (KSZL) Record (KSZL)
Temperature  
Mean Temperature 44 °F -  
Max Temperature 53 °F 65 °F 82 °F (2002)
Min Temperature 35 °F 46 °F 34 °F (2013)
Degree Days  
Heating Degree Days 21    
Moisture  
Dew Point 29 °F    
Average Humidity 60    
Maximum Humidity 87    
Minimum Humidity 35    
Precipitation  
Precipitation 0.00 in - - ()
Sea Level Pressure  
Sea Level Pressure 29.99 in    
Wind  
Wind Speed 13 mph (West)    
Max Wind Speed 21 mph    
Max Gust Speed 33 mph    
Visibility 10 miles    
Events      
Averages and records for this station are not official NWS values.
T = Trace of Precipitation, MM = Missing Value Source: NWS Daily Summary

Daily Weather History Graph

Daily Weather History Graph

Search for Another Location

Airport or City:

Trip Planner

Search our weather history database for the weather conditions in past years. The results will help you decide how hot, cold, wet, or windy it might be!

Date:

Astronomy

Apr. 19, 2013 Rise Set
Actual Time 6:32 AM CDT 7:55 PM CDT
Civil Twilight 6:05 AM CDT 8:22 PM CDT
Nautical Twilight 5:32 AM CDT 8:56 PM CDT
Astronomical Twilight 4:57 AM CDT 9:30 PM CDT
Moon 1:45 PM CDT 2:43 AM CDT
Length of Visible Light 14h 17m
Length of Day
13h 22m
First Quarter, 62% of the Moon is Illuminated
Apr 19
First Quarter
Apr 25
Full
May 2
Last Quarter
May 9
New
May 17
First Quarter

Hourly Weather History & Observations

Time (CDT) Temp. Windchill Dew Point Humidity Pressure Visibility Wind Dir Wind Speed Gust Speed Precip Events Conditions
12:15 AM 39.2 °F 30.8 °F 30.2 °F 70% 29.92 in 10.0 mi West 15.0 mph - N/A   Overcast
12:35 AM 39.2 °F 31.6 °F 30.2 °F 70% 29.92 in 10.0 mi West 12.7 mph 21.9 mph N/A   Overcast
12:55 AM 37.4 °F 30.3 °F 30.2 °F 75% 29.93 in 10.0 mi West 10.4 mph - N/A   Overcast
1:15 AM 37.4 °F 29.3 °F 30.2 °F 75% 29.92 in 10.0 mi West 12.7 mph - N/A   Overcast
1:35 AM 37.4 °F 29.8 °F 30.2 °F 75% 29.92 in 10.0 mi West 11.5 mph 17.3 mph N/A   Mostly Cloudy
1:55 AM 37.4 °F 28.5 °F 30.2 °F 75% 29.92 in 10.0 mi West 15.0 mph - N/A   Overcast
2:15 AM 37.4 °F 29.3 °F 30.2 °F 75% 29.91 in 10.0 mi West 12.7 mph 20.7 mph N/A   Mostly Cloudy
2:35 AM 37.4 °F 28.9 °F 30.2 °F 75% 29.91 in 10.0 mi West 13.8 mph 19.6 mph N/A   Overcast
2:55 AM 37.4 °F 28.9 °F 30.2 °F 75% 29.91 in 10.0 mi West 13.8 mph - N/A   Overcast
3:15 AM 37.4 °F 29.3 °F 30.2 °F 75% 29.91 in 10.0 mi West 12.7 mph 18.4 mph N/A   Overcast
3:35 AM 37.4 °F 28.2 °F 28.4 °F 70% 29.91 in 10.0 mi West 16.1 mph 24.2 mph N/A   Overcast
3:55 AM 37.4 °F 28.9 °F 28.4 °F 70% 29.92 in 10.0 mi WNW 13.8 mph - N/A   Overcast
4:15 AM 37.4 °F 28.2 °F 28.4 °F 70% 29.92 in 10.0 mi WNW 16.1 mph 21.9 mph N/A   Overcast
4:35 AM 35.6 °F 25.2 °F 28.4 °F 75% 29.92 in 10.0 mi West 18.4 mph 25.3 mph N/A   Overcast
4:55 AM 35.6 °F 26.2 °F 28.4 °F 75% 29.92 in 10.0 mi WNW 15.0 mph 18.4 mph N/A   Overcast
5:15 AM 35.6 °F 27.1 °F 28.4 °F 75% 29.93 in 10.0 mi West 12.7 mph 18.4 mph N/A   Overcast
5:35 AM 35.6 °F 24.8 °F 28.4 °F 75% 29.93 in 10.0 mi West 19.6 mph 23.0 mph N/A   Overcast
5:55 AM 35.6 °F 26.6 °F 28.4 °F 75% 29.93 in 10.0 mi West 13.8 mph - N/A   Mostly Cloudy
6:15 AM 35.6 °F 27.5 °F 28.4 °F 75% 29.94 in 10.0 mi West 11.5 mph 18.4 mph N/A   Overcast
6:35 AM 35.6 °F 27.1 °F 28.4 °F 75% 29.95 in 10.0 mi West 12.7 mph - N/A   Overcast
6:55 AM 35.6 °F 26.6 °F 28.4 °F 75% 29.96 in 10.0 mi West 13.8 mph 20.7 mph N/A   Overcast
7:15 AM 35.6 °F 27.5 °F 28.4 °F 75% 29.97 in 10.0 mi West 11.5 mph 16.1 mph N/A   Overcast
7:35 AM 35.6 °F 27.1 °F 28.4 °F 75% 29.98 in 10.0 mi West 12.7 mph 20.7 mph N/A   Mostly Cloudy
7:55 AM 35.6 °F 25.9 °F 28.4 °F 75% 29.98 in 10.0 mi West 16.1 mph 21.9 mph N/A   Scattered Clouds
8:15 AM 37.4 °F 28.9 °F 28.4 °F 70% 29.99 in 10.0 mi West 13.8 mph 19.6 mph N/A   Partly Cloudy
8:35 AM 37.4 °F 28.9 °F 30.2 °F 75% 29.98 in 10.0 mi West 13.8 mph 24.2 mph N/A   Partly Cloudy
8:55 AM 37.4 °F 29.3 °F 30.2 °F 75% 29.99 in 10.0 mi West 12.7 mph 19.6 mph N/A   Partly Cloudy
9:35 AM 39.2 °F 31.6 °F 28.4 °F 65% 29.99 in 10.0 mi West 12.7 mph 21.9 mph N/A   Partly Cloudy
9:55 AM 39.2 °F 30.2 °F 28.4 °F 65% 30.00 in 10.0 mi West 17.3 mph 24.2 mph N/A   Clear
10:15 AM 41.0 °F 32.8 °F 28.4 °F 61% 30.00 in 10.0 mi West 16.1 mph 24.2 mph N/A   Clear
10:35 AM 42.8 °F 34.8 °F 28.4 °F 57% 30.00 in 10.0 mi West 17.3 mph 21.9 mph N/A   Clear
10:55 AM 42.8 °F 35.8 °F 28.4 °F 57% 30.00 in 10.0 mi West 13.8 mph 23.0 mph N/A   Clear
11:15 AM 42.8 °F 34.5 °F 26.6 °F 53% 30.01 in 10.0 mi West 18.4 mph 23.0 mph N/A   Clear
11:35 AM 44.6 °F 37.4 °F 28.4 °F 53% 30.01 in 10.0 mi West 16.1 mph 21.9 mph N/A   Clear
11:55 AM 44.6 °F 37.4 °F 26.6 °F 49% 30.01 in 10.0 mi WNW 16.1 mph 23.0 mph N/A   Clear
12:15 PM 46.4 °F 39.8 °F 28.4 °F 50% 30.01 in 10.0 mi West 16.1 mph 23.0 mph N/A   Clear
12:35 PM 46.4 °F 39.2 °F 26.6 °F 46% 30.01 in 10.0 mi West 18.4 mph 24.2 mph N/A   Clear
12:55 PM 48.2 °F - 28.4 °F 46% 30.00 in 9.0 mi WNW 15.0 mph 25.3 mph N/A   Clear
1:15 PM 48.2 °F - 28.4 °F 46% 30.00 in 10.0 mi West 17.3 mph 33.4 mph N/A   Clear
1:35 PM 48.2 °F - 28.4 °F 46% 30.00 in 10.0 mi West 16.1 mph 24.2 mph N/A   Clear
1:55 PM 48.2 °F - 30.2 °F 50% 30.00 in 10.0 mi West 16.1 mph 21.9 mph N/A   Clear
2:15 PM 50.0 °F - 30.2 °F 47% 30.00 in 10.0 mi West 15.0 mph 25.3 mph N/A   Clear
2:35 PM 51.8 °F - 30.2 °F 44% 29.99 in 10.0 mi West 15.0 mph 29.9 mph N/A   Clear
2:55 PM 51.8 °F - 28.4 °F 41% 29.99 in 10.0 mi West 20.7 mph 28.8 mph N/A   Clear
3:15 PM 51.8 °F - 28.4 °F 41% 29.99 in 10.0 mi West 17.3 mph 26.5 mph N/A   Scattered Clouds
3:35 PM 51.8 °F - 26.6 °F 38% 29.99 in 10.0 mi WNW 19.6 mph 27.6 mph N/A   Partly Cloudy
3:55 PM 53.6 °F - 28.4 °F 38% 29.99 in 10.0 mi West 19.6 mph 23.0 mph N/A   Partly Cloudy
4:15 PM 51.8 °F - 28.4 °F 41% 30.00 in 10.0 mi West 17.3 mph 23.0 mph N/A   Scattered Clouds
4:35 PM 51.8 °F - 26.6 °F 38% 30.00 in 10.0 mi West 20.7 mph 27.6 mph N/A   Scattered Clouds
4:55 PM 53.6 °F - 28.4 °F 38% 30.01 in 10.0 mi West 17.3 mph 27.6 mph N/A   Scattered Clouds
5:15 PM 53.6 °F - 26.6 °F 35% 30.01 in 10.0 mi West 17.3 mph 26.5 mph N/A   Partly Cloudy
5:35 PM 51.8 °F - 28.4 °F 41% 30.02 in 10.0 mi WNW 16.1 mph 21.9 mph N/A   Mostly Cloudy
5:55 PM 51.8 °F - 28.4 °F 41% 30.03 in 10.0 mi West 16.1 mph 25.3 mph N/A   Mostly Cloudy
6:15 PM 51.8 °F - 28.4 °F 41% 30.03 in 10.0 mi West 10.4 mph 20.7 mph N/A   Partly Cloudy
6:35 PM 51.8 °F - 30.2 °F 44% 30.03 in 10.0 mi WNW 11.5 mph 24.2 mph N/A   Partly Cloudy
6:55 PM 51.8 °F - 30.2 °F 44% 30.03 in 10.0 mi WNW 16.1 mph 21.9 mph N/A   Scattered Clouds
7:15 PM 51.8 °F - 30.2 °F 44% 30.03 in 10.0 mi WNW 9.2 mph - N/A   Partly Cloudy
7:35 PM 50.0 °F - 30.2 °F 47% 30.04 in 10.0 mi WNW 9.2 mph - N/A   Partly Cloudy
7:55 PM 48.2 °F - 30.2 °F 50% 30.04 in 10.0 mi WNW 3.5 mph - N/A   Clear
8:15 PM 46.4 °F - 30.2 °F 53% 30.04 in 10.0 mi Calm Calm - N/A   Clear
8:35 PM 46.4 °F - 32.0 °F 57% 30.05 in 10.0 mi Calm Calm - N/A   Clear
8:55 PM 46.4 °F - 30.2 °F 53% 30.06 in 10.0 mi Calm Calm - N/A   Clear
9:15 PM 44.6 °F - 30.2 °F 57% 30.07 in 10.0 mi Calm Calm - N/A   Clear
9:35 PM 44.6 °F - 30.2 °F 57% 30.08 in 10.0 mi Calm Calm - N/A   Clear
9:55 PM 44.6 °F - 30.2 °F 57% 30.08 in 10.0 mi Calm Calm - N/A   Clear
10:15 PM 44.6 °F - 30.2 °F 57% 30.09 in 10.0 mi Calm Calm - N/A   Clear
10:35 PM 44.6 °F - 30.2 °F 57% 30.09 in 10.0 mi Calm Calm - N/A   Clear
10:55 PM 42.8 °F - 30.2 °F 61% 30.09 in 10.0 mi Calm Calm - N/A   Clear
11:15 PM 37.4 °F - 32.0 °F 81% 30.09 in 10.0 mi Calm Calm - N/A   Clear
11:35 PM 39.2 °F - 33.8 °F 81% 30.09 in 10.0 mi Calm Calm - N/A   Clear
11:55 PM 37.4 °F - 33.8 °F 87% 30.10 in 10.0 mi Calm Calm - N/A   Clear